Simultaneous Nadir Overpasses (SNOs) Predictions

Prediction of SNOs between GOES-15 and NPP Satellite Orbit:

Table of predicted SNOs for the next 14.0 days since TLE Epoch: 9/6/2019
Index Date Time (GOES-15) GOES-15 Lat,Lon NPP Lat,Lon Distance(km) Time Diff (sec)
1 09/09/2019 10:02:02 0.36,-128.25 0.49,-128.77 59.49 80
2 09/10/2019 09:40:38 0.36,-128.22 -0.53,-124.24 454.53 80
3 09/11/2019 22:02:34 -0.35,-128.16 -0.66,-129.54 156.49 80
4 09/12/2019 21:46:30 -0.35,-128.14 0.37,-125.01 357.90 80
5 09/14/2019 10:08:17 0.34,-128.14 0.84,-130.27 242.80 80
6 09/15/2019 09:46:52 0.35,-128.12 -0.18,-125.74 271.06 80
7 09/16/2019 22:08:49 -0.34,-128.04 -1.00,-131.04 341.30 80
8 09/17/2019 21:52:43 -0.34,-128.02 -0.03,-126.50 172.70 80
9 09/19/2019 10:11:51 0.33,-128.02 1.18,-131.77 428.34 80
10 09/20/2019 09:53:07 0.34,-127.98 0.15,-127.24 84.78 80




NCC Satellite Simultaneous Nadir Overpasses (SNOs) Prediction Service
